NOZ345 ENTC-UUWW

Flight info

Callsign NOZ345
Flight time N/A
Altitude 35000
Route ERPUG DCT RATUL M609 SDA P65 VANOS/K0857F350 P65 MOVIT/K0863F370 P65 UREPI/K0839F380 P65 ROMTA
Aircraft B738/M-SDE2E3FGHIRWXY/LB1

Departure

Time 2026-05-06 15:02
Airport Tromsø Airport (ENTC)

Arrival

Time N/A
Airport Vnukovo International Airport (UUWW)
Time Latitude Longitude Altitude Speed Heading
2026-05-06 14:27 69.67883 18.90867 33 ft 0 kts 283°
2026-05-06 14:50 69.67882 18.90887 33 ft 2 kts 283°
2026-05-06 14:50 69.67878 18.90932 34 ft 2 kts 283°
2026-05-06 14:50 69.67877 18.90949 34 ft 0 kts 283°
2026-05-06 14:51 69.67877 18.90953 34 ft 2 kts 283°
2026-05-06 14:51 69.67873 18.90997 33 ft 2 kts 283°
2026-05-06 14:51 69.67870 18.91032 31 ft 0 kts 283°
2026-05-06 14:58 69.67870 18.91031 31 ft 0 kts 282°
2026-05-06 14:58 69.67866 18.91022 31 ft 1 kts 217°
2026-05-06 14:58 69.67851 18.91046 32 ft 6 kts 144°
2026-05-06 14:59 69.67812 18.91125 34 ft 8 kts 158°
2026-05-06 14:59 69.67740 18.91105 34 ft 12 kts 192°
2026-05-06 14:59 69.67661 18.91072 32 ft 10 kts 167°
2026-05-06 14:59 69.67637 18.91138 34 ft 0 kts 114°
2026-05-06 15:00 69.67636 18.91142 34 ft 2 kts 113°
2026-05-06 15:00 69.67629 18.91205 36 ft 4 kts 109°
2026-05-06 15:01 69.67623 18.91345 39 ft 9 kts 82°
2026-05-06 15:01 69.67669 18.91445 39 ft 9 kts 12°
2026-05-06 15:01 69.67693 18.91459 39 ft 0 kts 13°
2026-05-06 15:02 69.67714 18.91473 39 ft 23 kts 13°
2026-05-06 15:02 69.68184 18.91783 30 ft 114 kts 13°
2026-05-06 15:02 69.69208 18.92465 63 ft 183 kts 12°
2026-05-06 15:02 69.70463 18.93227 1145 ft 174 kts 11°
2026-05-06 15:03 69.71644 18.93992 2283 ft 178 kts 13°
2026-05-06 15:03 69.72923 18.94896 2880 ft 202 kts 17°
2026-05-06 15:03 69.74099 18.97154 3438 ft 210 kts 53°
2026-05-06 15:03 69.74524 19.01116 3944 ft 213 kts 92°
2026-05-06 15:04 69.74629 19.05375 4477 ft 216 kts 66°
2026-05-06 15:04 69.75464 19.08950 5052 ft 216 kts 54°
2026-05-06 15:04 69.76334 19.12669 5334 ft 235 kts 57°
2026-05-06 15:04 69.77223 19.16848 5632 ft 253 kts 59°
2026-05-06 15:05 69.77673 19.19043 5711 ft 265 kts 59°
2026-05-06 15:05 69.77820 19.19766 5766 ft 267 kts 59°
2026-05-06 15:05 69.78771 19.24500 6316 ft 277 kts 60°
2026-05-06 15:05 69.79724 19.29378 7153 ft 279 kts 65°
2026-05-06 15:06 69.80162 19.34800 8007 ft 280 kts 88°
2026-05-06 15:06 69.80143 19.40457 8814 ft 283 kts 92°
2026-05-06 15:06 69.80068 19.46190 9573 ft 287 kts 92°
2026-05-06 15:06 69.79985 19.52001 10324 ft 292 kts 92°
2026-05-06 15:07 69.79903 19.58092 10591 ft 316 kts 92°
2026-05-06 15:07 69.79820 19.64675 10778 ft 340 kts 92°
2026-05-06 15:07 69.79734 19.71726 11030 ft 359 kts 92°
2026-05-06 15:07 69.79648 19.79009 11680 ft 365 kts 92°
2026-05-06 15:08 69.79560 19.86388 12366 ft 369 kts 92°
2026-05-06 15:08 69.79466 19.93854 13070 ft 373 kts 92°
2026-05-06 15:08 69.79409 20.01384 13752 ft 377 kts 87°
2026-05-06 15:08 69.79707 20.08958 14391 ft 382 kts 81°
2026-05-06 15:09 69.80138 20.16377 14979 ft 387 kts 80°
2026-05-06 15:09 69.80612 20.24075 15638 ft 389 kts 80°
2026-05-06 15:09 69.81081 20.31819 16276 ft 393 kts 80°
2026-05-06 15:09 69.81534 20.39620 16963 ft 393 kts 81°
2026-05-06 15:10 69.81967 20.47360 17573 ft 397 kts 81°
2026-05-06 15:10 69.82397 20.55299 18104 ft 401 kts 81°
2026-05-06 15:10 69.82825 20.63360 18545 ft 408 kts 81°
2026-05-06 15:10 69.83252 20.71541 19051 ft 412 kts 81°
2026-05-06 15:11 69.83674 20.79732 19785 ft 410 kts 81°
2026-05-06 15:11 69.84094 20.87939 20297 ft 414 kts 82°
2026-05-06 15:11 69.84515 20.96243 20750 ft 418 kts 82°
2026-05-06 15:11 69.84936 21.04619 21259 ft 421 kts 82°
2026-05-06 15:12 69.85356 21.13056 21698 ft 425 kts 82°
2026-05-06 15:12 69.85776 21.21586 22148 ft 428 kts 82°
2026-05-06 15:12 69.86196 21.30167 22597 ft 432 kts 82°
2026-05-06 15:12 69.86616 21.38835 22983 ft 435 kts 82°
2026-05-06 15:13 69.87039 21.47534 23518 ft 435 kts 80°
2026-05-06 15:13 69.87896 21.55969 23834 ft 440 kts 65°
2026-05-06 15:13 69.89244 21.63992 24201 ft 443 kts 63°
2026-05-06 15:13 69.90621 21.71993 24696 ft 443 kts 63°
2026-05-06 15:14 69.91966 21.80059 25125 ft 444 kts 64°
2026-05-06 15:14 69.93285 21.88244 25448 ft 448 kts 65°
2026-05-06 15:14 69.94509 21.96635 25714 ft 453 kts 71°
2026-05-06 15:14 69.95312 22.05502 26120 ft 453 kts 80°
2026-05-06 15:15 69.95648 22.14667 26390 ft 457 kts 86°
2026-05-06 15:15 69.95826 22.23972 26627 ft 462 kts 87°
2026-05-06 15:15 69.95974 22.33335 26949 ft 463 kts 87°
2026-05-06 15:15 69.96123 22.42732 27321 ft 464 kts 87°
2026-05-06 15:16 69.96285 22.52140 27635 ft 466 kts 87°
2026-05-06 15:16 69.96457 22.61591 27907 ft 468 kts 87°
2026-05-06 15:16 69.96635 22.71090 28194 ft 470 kts 87°
2026-05-06 15:16 69.96813 22.80624 28497 ft 471 kts 87°
2026-05-06 15:17 69.96987 22.90191 28753 ft 474 kts 87°
2026-05-06 15:17 69.97156 22.99808 29029 ft 474 kts 87°
2026-05-06 15:17 69.97318 23.09376 29575 ft 469 kts 87°
2026-05-06 15:17 69.97475 23.18826 30120 ft 464 kts 87°
2026-05-06 15:18 69.97624 23.28216 30507 ft 463 kts 87°
2026-05-06 15:18 69.97793 23.37614 30754 ft 465 kts 85°
2026-05-06 15:18 69.98242 23.46971 31020 ft 466 kts 80°
2026-05-06 15:18 69.98838 23.56250 31368 ft 465 kts 79°
2026-05-06 15:19 69.99471 23.65512 31650 ft 465 kts 78°
2026-05-06 15:19 70.00102 23.74790 31890 ft 467 kts 79°
2026-05-06 15:19 70.00717 23.84098 32183 ft 466 kts 79°
2026-05-06 15:19 70.01312 23.93413 32498 ft 466 kts 79°
2026-05-06 15:20 70.01890 24.02719 32788 ft 465 kts 79°
2026-05-06 15:20 70.02448 24.11893 33130 ft 463 kts 80°
2026-05-06 15:20 70.03003 24.21138 33475 ft 461 kts 80°
2026-05-06 15:20 70.03553 24.30382 33754 ft 461 kts 80°
2026-05-06 15:21 70.04099 24.39628 33969 ft 462 kts 80°
2026-05-06 15:21 70.04642 24.48900 34166 ft 463 kts 80°
2026-05-06 15:21 70.05181 24.58189 34424 ft 462 kts 80°
2026-05-06 15:21 70.05714 24.67451 34753 ft 460 kts 80°
2026-05-06 15:22 70.06240 24.76674 35011 ft 459 kts 80°
2026-05-06 15:22 70.07287 24.95269 35006 ft 463 kts 81°
2026-05-06 15:23 70.08358 25.13724 34984 ft 455 kts 80°
2026-05-06 15:23 70.09272 25.28893 35001 ft 454 kts 80°
2026-05-06 15:24 70.10353 25.47195 35003 ft 455 kts 80°
2026-05-06 15:24 70.11409 25.65559 35015 ft 457 kts 80°
2026-05-06 15:25 70.12450 25.84030 35010 ft 459 kts 81°
2026-05-06 15:25 70.13476 26.02590 35001 ft 461 kts 81°
2026-05-06 15:26 70.14482 26.21241 35002 ft 462 kts 81°
2026-05-06 15:26 70.15471 26.39952 35006 ft 463 kts 81°
2026-05-06 15:27 70.16444 26.58706 34999 ft 464 kts 81°
2026-05-06 15:27 70.17398 26.77485 34997 ft 463 kts 81°
2026-05-06 15:28 70.18331 26.96243 34997 ft 462 kts 82°
2026-05-06 15:28 70.19235 27.14842 34995 ft 461 kts 82°
2026-05-06 15:29 70.20123 27.33514 34998 ft 459 kts 82°
2026-05-06 15:29 70.20990 27.52153 34998 ft 458 kts 82°
2026-05-06 15:30 70.21835 27.70737 35000 ft 457 kts 82°
2026-05-06 15:30 70.22661 27.89302 34999 ft 456 kts 83°
2026-05-06 15:30 70.22700 27.98614 34978 ft 454 kts 100°
2026-05-06 15:31 70.21783 28.07480 35010 ft 453 kts 116°
2026-05-06 15:31 70.20111 28.15318 34995 ft 452 kts 132°
2026-05-06 15:31 70.17838 28.21668 35024 ft 451 kts 140°
2026-05-06 15:32 70.10564 28.39378 34999 ft 454 kts 140°
2026-05-06 15:32 70.05733 28.51379 34997 ft 456 kts 140°
2026-05-06 15:33 70.00890 28.63399 35000 ft 458 kts 140°
2026-05-06 15:33 69.96006 28.75380 35002 ft 459 kts 140°
2026-05-06 15:34 69.91103 28.87338 34998 ft 461 kts 140°
2026-05-06 15:34 69.86180 28.99277 34997 ft 461 kts 140°
2026-05-06 15:35 69.81278 29.11096 35001 ft 461 kts 140°
2026-05-06 15:35 69.76342 29.22922 34997 ft 460 kts 140°
2026-05-06 15:36 69.71406 29.34675 34996 ft 459 kts 141°
2026-05-06 15:36 69.66478 29.46336 35000 ft 458 kts 141°
2026-05-06 15:37 69.61557 29.57911 34992 ft 457 kts 141°
2026-05-06 15:37 69.56641 29.69400 35001 ft 455 kts 141°
2026-05-06 15:38 69.51727 29.80818 34999 ft 455 kts 141°
2026-05-06 15:38 69.46851 29.92086 34999 ft 454 kts 141°
2026-05-06 15:39 69.41865 30.03091 34989 ft 453 kts 148°
2026-05-06 15:39 69.36239 30.11088 35010 ft 453 kts 155°
2026-05-06 15:40 69.30505 30.18500 35008 ft 453 kts 155°
2026-05-06 15:40 69.24769 30.25953 35002 ft 454 kts 155°
2026-05-06 15:41 69.19024 30.33468 34999 ft 456 kts 155°
2026-05-06 15:41 69.13266 30.40995 35005 ft 457 kts 155°
2026-05-06 15:42 69.07495 30.48499 35001 ft 458 kts 155°
2026-05-06 15:42 69.01705 30.55980 35002 ft 459 kts 155°
2026-05-06 15:43 68.95949 30.63373 35001 ft 459 kts 155°
2026-05-06 15:43 68.90143 30.70787 34998 ft 459 kts 155°
2026-05-06 15:44 68.84339 30.78155 34997 ft 459 kts 155°
2026-05-06 15:44 68.78538 30.85476 35000 ft 458 kts 155°
2026-05-06 15:45 68.72742 30.92749 35005 ft 457 kts 156°
2026-05-06 15:45 68.66953 30.99973 35000 ft 456 kts 156°
2026-05-06 15:46 68.61171 31.07145 34999 ft 456 kts 156°
2026-05-06 15:46 68.55397 31.14268 34997 ft 455 kts 156°
2026-05-06 15:47 68.49626 31.21346 34998 ft 454 kts 156°
2026-05-06 15:47 68.43860 31.28381 35003 ft 454 kts 156°
2026-05-06 15:48 68.38084 31.35386 35001 ft 454 kts 156°
2026-05-06 15:48 68.32309 31.42353 34998 ft 455 kts 156°
2026-05-06 15:49 68.26524 31.49291 35002 ft 455 kts 156°
2026-05-06 15:49 68.20733 31.56199 34999 ft 456 kts 156°
2026-05-06 15:50 68.14927 31.63086 35000 ft 456 kts 156°
2026-05-06 15:50 68.09109 31.69949 35008 ft 457 kts 156°
2026-05-06 15:51 68.03316 31.76746 35009 ft 458 kts 156°
2026-05-06 15:51 67.97469 31.83567 35004 ft 459 kts 156°
2026-05-06 15:52 67.91610 31.90364 34998 ft 460 kts 156°
2026-05-06 15:52 67.85744 31.97134 34997 ft 460 kts 156°
2026-05-06 15:53 67.79874 32.03869 35003 ft 460 kts 157°
2026-05-06 15:53 67.74007 32.10565 35002 ft 459 kts 157°
2026-05-06 15:54 67.68151 32.17212 34997 ft 458 kts 157°
2026-05-06 15:54 67.62302 32.23815 35002 ft 457 kts 157°
2026-05-06 15:55 67.56464 32.30369 35001 ft 456 kts 157°
2026-05-06 15:55 67.50635 32.36879 35000 ft 455 kts 157°
2026-05-06 15:56 67.44812 32.43348 35004 ft 455 kts 157°
2026-05-06 15:56 67.38992 32.49778 35000 ft 454 kts 157°
2026-05-06 15:57 67.33172 32.56174 35000 ft 454 kts 157°
2026-05-06 15:57 67.27350 32.62539 35005 ft 454 kts 157°
2026-05-06 15:58 67.21517 32.68882 35009 ft 455 kts 157°
2026-05-06 15:58 67.15675 32.75201 34996 ft 456 kts 157°
2026-05-06 15:59 67.09822 32.81499 35007 ft 456 kts 158°
2026-05-06 15:59 67.03957 32.87778 34996 ft 457 kts 158°
2026-05-06 16:00 66.98080 32.94035 34998 ft 458 kts 158°
2026-05-06 16:00 66.92195 33.00269 35004 ft 458 kts 158°
2026-05-06 16:01 66.86303 33.06477 35002 ft 458 kts 158°
2026-05-06 16:01 66.80460 33.12602 35001 ft 457 kts 158°
2026-05-06 16:02 66.74584 33.18730 35001 ft 456 kts 158°
2026-05-06 16:02 66.68710 33.24824 34996 ft 456 kts 158°
2026-05-06 16:03 66.62851 33.30872 35003 ft 455 kts 158°
2026-05-06 16:03 66.56994 33.36887 34996 ft 454 kts 158°
2026-05-06 16:04 66.51139 33.42870 35008 ft 454 kts 158°
2026-05-06 16:04 66.45290 33.48817 35005 ft 454 kts 158°
2026-05-06 16:05 66.39442 33.54734 35001 ft 454 kts 158°
2026-05-06 16:05 66.33452 33.59592 35015 ft 453 kts 166°
2026-05-06 16:06 66.27314 33.63215 35000 ft 454 kts 167°
2026-05-06 16:06 66.21161 33.66775 35002 ft 454 kts 167°
2026-05-06 16:07 66.15014 33.70410 35006 ft 455 kts 167°
2026-05-06 16:07 66.08862 33.74091 35001 ft 455 kts 166°
2026-05-06 16:08 66.02702 33.77775 35000 ft 456 kts 166°
2026-05-06 16:08 65.96532 33.81447 34997 ft 456 kts 166°
2026-05-06 16:09 65.90362 33.85099 35004 ft 456 kts 167°
2026-05-06 16:09 65.84185 33.88735 35003 ft 457 kts 167°
2026-05-06 16:10 65.78006 33.92354 35003 ft 456 kts 167°
2026-05-06 16:10 65.71872 33.95928 35000 ft 456 kts 167°
2026-05-06 16:11 65.65701 33.99507 35000 ft 456 kts 167°
2026-05-06 16:11 65.59527 34.03071 34998 ft 456 kts 167°
2026-05-06 16:12 65.53364 34.06610 35006 ft 455 kts 167°
2026-05-06 16:12 65.47202 34.10133 35004 ft 455 kts 167°
2026-05-06 16:13 65.41043 34.13636 35003 ft 455 kts 167°